"read_dt","SO2 (ppb)","flags","PMT voltage (V)","lamp voltage (V)","lamp intensity (Hz)","internal temp (C)","react chamber temp (C)","sample flow (l/min)","pres (mmHg)","SO2 bkg (ppb)","SO2 coefficient"
2014-04-16 00:00:00,3059E-2,5C000400,-0724,1031,10160,024.3,045.2,0.000,748.1,01.17,0.508
2014-04-16 00:01:00,3080E-2,5C000400,-0724,1032,10375,024.4,045.2,0.000,748.1,01.17,0.508
2014-04-16 00:02:00,3076E-2,5C000400,-0724,1032,10268,024.4,045.2,0.000,748.0,01.17,0.508
2014-04-16 00:03:00,3078E-2,5C000400,-0724,1032,10286,024.4,045.2,0.000,748.1,01.17,0.508
2014-04-16 00:04:00,3067E-2,5C000400,-0724,1032,10116,024.4,045.2,0.000,748.1,01.17,0.508
2014-04-16 00:05:00,3093E-2,5C000400,-0724,1032,10121,024.4,045.2,0.000,748.1,01.17,0.508
2014-04-16 00:06:00,3057E-2,5C000400,-0724,1033,10218,024.4,045.2,0.000,748.1,01.17,0.508
2014-04-16 00:07:00,3050E-2,5C000400,-0724,1033,10222,024.4,045.2,0.000,748.0,01.17,0.508
2014-04-16 00:08:00,3060E-2,5C000400,-0724,1033,10160,024.4,045.2,0.000,748.0,01.17,0.508
2014-04-16 00:09:00,2972E-2,5C000400,-0724,1033,10296,024.4,045.2,0.000,748.0,01.17,0.508
2014-04-16 00:10:00,3000E-2,5C000400,-0724,1032,10231,024.4,045.2,0.000,748.1,01.17,0.508
2014-04-16 00:11:00,2954E-2,5C000400,-0724,1032,10263,024.4,045.2,0.000,748.1,01.17,0.508
2014-04-16 00:12:00,3001E-2,5C000400,-0724,1032,10254,024.4,045.2,0.000,748.0,01.17,0.508
2014-04-16 00:13:00,2979E-2,5C000400,-0724,1033,10105,024.4,045.2,0.000,748.0,01.17,0.508
2014-04-16 00:14:00,2989E-2,5C000400,-0724,1033,10132,024.4,045.2,0.000,748.0,01.17,0.508
2014-04-16 00:15:00,3011E-2,5C000400,-0724,1033,10272,024.4,045.2,0.000,748.0,01.17,0.508
2014-04-16 00:16:00,3019E-2,5C000400,-0724,1033,10297,024.4,045.2,0.000,748.0,01.17,0.508
2014-04-16 00:17:00,2991E-2,5C000400,-0724,1033,10273,024.4,045.2,0.000,747.9,01.17,0.508
2014-04-16 00:18:00,3064E-2,5C000400,-0724,1034,10131,024.4,045.2,0.000,747.9,01.17,0.508
2014-04-16 00:19:00,3004E-2,5C000400,-0724,1033,10299,024.4,045.2,0.000,747.9,01.17,0.508
2014-04-16 00:20:00,2997E-2,5C000400,-0724,1034,10088,024.5,045.2,0.000,748.0,01.17,0.508
2014-04-16 00:21:00,2975E-2,5C000400,-0724,1033,10345,024.4,045.2,0.000,748.0,01.17,0.508
2014-04-16 00:22:00,2978E-2,5C000400,-0724,1033,10243,024.4,045.2,0.000,747.9,01.17,0.508
2014-04-16 00:23:00,2995E-2,5C000400,-0724,1033,10043,024.4,045.2,0.000,747.8,01.17,0.508
2014-04-16 00:24:00,3003E-2,5C000400,-0724,1034,10039,024.4,045.2,0.000,747.8,01.17,0.508
2014-04-16 00:25:00,2972E-2,5C000400,-0724,1035,10183,024.4,045.2,0.000,747.8,01.17,0.508
2014-04-16 00:26:00,3003E-2,5C000400,-0724,1033,10312,024.4,045.2,0.000,747.8,01.17,0.508
2014-04-16 00:27:00,2974E-2,5C000400,-0724,1033,10187,024.5,045.2,0.000,747.8,01.17,0.508
2014-04-16 00:28:00,2939E-2,5C000400,-0724,1033,10160,024.5,045.2,0.000,747.8,01.17,0.508
2014-04-16 00:29:00,3017E-2,5C000400,-0724,1032,10108,024.5,045.2,0.000,747.8,01.17,0.508
2014-04-16 00:30:00,2975E-2,5C000400,-0724,1033,10168,024.4,045.2,0.000,747.8,01.17,0.508
2014-04-16 00:31:00,3002E-2,5C000400,-0724,1034,10320,024.5,045.2,0.000,747.8,01.17,0.508
2014-04-16 00:32:00,2948E-2,5C000400,-0724,1033,10201,024.5,045.2,0.000,747.8,01.17,0.508
2014-04-16 00:33:00,2968E-2,5C000400,-0724,1034,10045,024.5,045.2,0.000,747.7,01.17,0.508
2014-04-16 00:34:00,2977E-2,5C000400,-0724,1034,10268,024.5,045.2,0.000,747.7,01.17,0.508
2014-04-16 00:35:00,3047E-2,5C000410,-0724,1034,10238,024.5,045.2,0.000,747.8,01.17,0.508
2014-04-16 00:36:00,3018E-2,5C000400,-0724,1035,10223,024.5,045.2,0.000,747.8,01.17,0.508
2014-04-16 00:37:00,2999E-2,5C000400,-0724,1034,10151,024.5,045.2,0.000,747.7,01.17,0.508
2014-04-16 00:38:00,2993E-2,5C000400,-0724,1034,10099,024.5,045.2,0.000,747.7,01.17,0.508
2014-04-16 00:39:00,2983E-2,5C000400,-0724,1035,10207,024.5,045.2,0.000,747.7,01.17,0.508
2014-04-16 00:40:00,2964E-2,5C000400,-0724,1036,10191,024.5,045.2,0.000,747.7,01.17,0.508
2014-04-16 00:41:00,2958E-2,5C000400,-0724,1036,10167,024.5,045.2,0.000,747.6,01.17,0.508
2014-04-16 00:42:00,2998E-2,5C000400,-0724,1035,10167,024.5,045.2,0.000,747.5,01.17,0.508
2014-04-16 00:43:00,3009E-2,5C000400,-0724,1035,10252,024.5,045.2,0.000,747.6,01.17,0.508
2014-04-16 00:44:00,3020E-2,5C000400,-0724,1035,10249,024.5,045.2,0.000,747.6,01.17,0.508
2014-04-16 00:45:00,3020E-2,5C000400,-0724,1036,10108,024.5,045.2,0.000,747.5,01.17,0.508
2014-04-16 00:46:00,2965E-2,5C000400,-0724,1034,10188,024.5,045.2,0.000,747.5,01.17,0.508
2014-04-16 00:47:00,3008E-2,5C000400,-0724,1034,10086,024.5,045.2,0.000,747.5,01.17,0.508
2014-04-16 00:48:00,3003E-2,5C000400,-0724,1034,10149,024.5,045.2,0.000,747.4,01.17,0.508
2014-04-16 00:49:00,2952E-2,5C000400,-0724,1034,10141,024.5,045.2,0.000,747.4,01.17,0.508
2014-04-16 00:50:00,2971E-2,5C000400,-0724,1033,10187,024.5,045.2,0.000,747.4,01.17,0.508
2014-04-16 00:51:00,3002E-2,5C000400,-0724,1033,10128,024.5,045.2,0.000,747.4,01.17,0.508
2014-04-16 00:52:00,3029E-2,5C000400,-0724,1031,10133,024.5,045.2,0.000,747.3,01.17,0.508
2014-04-16 00:53:00,2986E-2,5C000400,-0724,1032,10321,024.6,045.2,0.000,747.3,01.17,0.508
2014-04-16 00:54:00,2984E-2,5C000400,-0724,1033,10325,024.5,045.2,0.000,747.3,01.17,0.508
2014-04-16 00:55:00,3032E-2,5C000400,-0724,1032,10278,024.5,045.2,0.000,747.3,01.17,0.508
2014-04-16 00:56:00,2987E-2,5C000400,-0724,1032,10043,024.5,045.2,0.000,747.2,01.17,0.508
2014-04-16 00:57:00,2960E-2,5C000400,-0724,1034,10250,024.5,045.2,0.000,747.2,01.17,0.508
2014-04-16 00:58:00,2968E-2,5C000400,-0724,1021,10422,024.5,045.2,0.000,747.2,01.17,0.508
2014-04-16 00:59:00,2819E-2,5C000400,-0724,1018,10368,024.5,045.2,0.000,747.2,01.17,0.508
2014-04-16 01:00:00,2848E-2,5C000400,-0724,1020,10409,024.6,045.2,0.000,747.2,01.17,0.508
2014-04-16 01:01:00,2838E-2,5C000400,-0724,1020,10184,024.6,045.2,0.000,747.2,01.17,0.508
2014-04-16 01:02:00,2857E-2,5C000400,-0724,1022,10282,024.6,045.2,0.000,747.3,01.17,0.508
2014-04-16 01:03:00,2925E-2,5C000400,-0724,1026,10273,024.6,045.2,0.000,747.2,01.17,0.508
2014-04-16 01:04:00,2926E-2,5C000400,-0724,1030,10084,024.6,045.2,0.000,747.2,01.17,0.508
2014-04-16 01:05:00,2947E-2,5C000400,-0724,1031,10155,024.6,045.2,0.000,747.3,01.17,0.508
2014-04-16 01:06:00,2912E-2,5C000400,-0724,1030,10215,024.6,045.2,0.000,747.3,01.17,0.508
2014-04-16 01:07:00,2917E-2,5C000400,-0724,1030,10237,024.6,045.2,0.000,747.3,01.17,0.508
2014-04-16 01:08:00,2903E-2,5C000400,-0724,1031,10200,024.6,045.2,0.000,747.3,01.17,0.508
2014-04-16 01:09:00,2908E-2,5C000400,-0724,1031,10282,024.6,045.2,0.000,747.4,01.17,0.508
2014-04-16 01:10:00,2946E-2,5C000400,-0724,1029,10357,024.6,045.2,0.000,747.3,01.17,0.508
2014-04-16 01:11:00,2910E-2,5C000400,-0724,1029,10375,024.6,045.2,0.000,747.3,01.17,0.508
2014-04-16 01:12:00,2913E-2,5C000400,-0724,1029,10330,024.6,045.2,0.000,747.3,01.17,0.508
2014-04-16 01:13:00,2903E-2,5C000400,-0724,1029,10161,024.6,045.2,0.000,747.2,01.17,0.508
2014-04-16 01:14:00,2901E-2,5C000400,-0724,1029,10302,024.6,045.2,0.000,747.2,01.17,0.508
2014-04-16 01:15:00,2896E-2,5C000400,-0724,1027,10217,024.6,045.2,0.000,747.2,01.17,0.508
2014-04-16 01:16:00,2892E-2,5C000400,-0724,1028,10159,024.6,045.2,0.000,747.2,01.17,0.508
2014-04-16 01:17:00,2866E-2,5C000400,-0724,1027,10273,024.7,045.2,0.000,747.2,01.17,0.508
2014-04-16 01:18:00,2871E-2,5C000400,-0724,1028,10279,024.6,045.2,0.000,747.1,01.17,0.508
2014-04-16 01:19:00,2898E-2,5C000400,-0724,1028,10362,024.6,045.2,0.000,747.1,01.17,0.508
2014-04-16 01:20:00,2905E-2,5C000400,-0724,1028,10279,024.6,045.2,0.000,747.1,01.17,0.508
2014-04-16 01:21:00,2887E-2,5C000400,-0724,1026,10204,024.6,045.2,0.000,747.1,01.17,0.508
2014-04-16 01:22:00,2928E-2,5C000400,-0724,1027,10064,024.6,045.2,0.000,747.1,01.17,0.508
2014-04-16 01:23:00,2894E-2,5C000400,-0724,1026,10156,024.6,045.2,0.000,747.1,01.17,0.508
2014-04-16 01:24:00,2889E-2,5C000400,-0724,1026,10305,024.6,045.2,0.000,747.1,01.17,0.508
2014-04-16 01:25:00,2894E-2,5C000400,-0724,1027,10319,024.6,045.2,0.000,747.1,01.17,0.508
2014-04-16 01:26:00,2964E-2,5C000400,-0724,1026,10344,024.6,045.2,0.000,747.0,01.17,0.508
2014-04-16 01:27:00,2881E-2,5C000400,-0724,1025,10194,024.7,045.2,0.000,747.0,01.17,0.508
2014-04-16 01:28:00,2932E-2,5C000400,-0724,1026,10328,024.7,045.2,0.000,747.1,01.17,0.508
2014-04-16 01:29:00,2891E-2,5C000400,-0724,1026,10424,024.6,045.2,0.000,747.1,01.17,0.508
2014-04-16 01:30:00,2910E-2,5C000400,-0724,1025,10258,024.7,045.2,0.000,747.0,01.17,0.508
2014-04-16 01:31:00,2874E-2,5C000400,-0724,1026,10313,024.7,045.2,0.000,746.9,01.17,0.508
2014-04-16 01:32:00,2932E-2,5C000400,-0724,1025,10249,024.6,045.2,0.000,746.9,01.17,0.508
2014-04-16 01:33:00,2962E-2,5C000400,-0724,1026,10332,024.7,045.2,0.000,747.0,01.17,0.508
2014-04-16 01:34:00,2941E-2,5C000400,-0724,1024,10298,024.6,045.2,0.000,746.9,01.17,0.508
2014-04-16 01:35:00,2926E-2,5C000400,-0724,1025,10243,024.7,045.2,0.000,746.9,01.17,0.508
2014-04-16 01:36:00,2909E-2,5C000400,-0724,1024,10239,024.7,045.2,0.000,746.9,01.17,0.508
2014-04-16 01:37:00,2911E-2,5C000410,-0724,1025,9957,024.7,045.2,0.000,746.9,01.17,0.508
2014-04-16 01:38:00,2941E-2,5C000400,-0724,1025,10352,024.7,045.2,0.000,746.8,01.17,0.508
2014-04-16 01:39:00,2897E-2,5C000400,-0724,1026,10117,024.7,045.2,0.000,746.7,01.17,0.508
2014-04-16 01:40:00,2929E-2,5C000400,-0724,1027,10363,024.7,045.2,0.000,746.7,01.17,0.508
2014-04-16 01:41:00,2915E-2,5C000400,-0724,1026,10332,024.7,045.2,0.000,746.8,01.17,0.508
2014-04-16 01:42:00,2909E-2,5C000400,-0724,1024,10274,024.7,045.2,0.000,746.8,01.17,0.508
2014-04-16 01:43:00,2935E-2,5C000400,-0724,1024,10325,024.7,045.2,0.000,746.7,01.17,0.508
2014-04-16 01:44:00,2908E-2,5C000400,-0724,1026,10281,024.7,045.2,0.000,746.6,01.17,0.508
2014-04-16 01:45:00,2930E-2,5C000400,-0724,1025,10243,024.7,045.2,0.000,746.7,01.17,0.508
2014-04-16 01:46:00,2917E-2,5C000400,-0724,1026,10267,024.7,045.2,0.000,746.7,01.17,0.508
2014-04-16 01:47:00,2921E-2,5C000400,-0724,1025,10401,024.7,045.2,0.000,746.6,01.17,0.508
2014-04-16 01:48:00,2907E-2,5C000400,-0724,1025,10148,024.7,045.2,0.000,746.6,01.17,0.508
2014-04-16 01:49:00,2936E-2,5C000400,-0724,1025,10091,024.7,045.2,0.000,746.6,01.17,0.508
2014-04-16 01:50:00,2930E-2,5C000400,-0724,1024,10403,024.7,045.2,0.000,746.6,01.17,0.508
2014-04-16 01:51:00,2925E-2,5C000400,-0724,1024,10200,024.7,045.2,0.000,746.5,01.17,0.508
2014-04-16 01:52:00,2960E-2,5C000400,-0724,1025,10237,024.7,045.2,0.000,746.6,01.17,0.508
2014-04-16 01:53:00,2944E-2,5C000400,-0724,1026,10303,024.7,045.2,0.000,746.6,01.17,0.508
2014-04-16 01:54:00,2952E-2,5C000400,-0724,1024,10153,024.7,045.2,0.000,746.5,01.17,0.508
2014-04-16 01:55:00,2933E-2,5C000400,-0724,1025,10364,024.8,045.2,0.000,746.5,01.17,0.508
2014-04-16 01:56:00,2981E-2,5C000400,-0724,1025,10356,024.7,045.2,0.000,746.5,01.17,0.508
2014-04-16 01:57:00,2952E-2,5C000400,-0724,1024,10026,024.8,045.2,0.000,746.5,01.17,0.508
2014-04-16 01:58:00,2989E-2,5C000400,-0724,1025,10405,024.8,045.2,0.000,746.5,01.17,0.508
2014-04-16 01:59:00,2942E-2,5C000400,-0724,1025,10172,024.8,045.2,0.000,746.5,01.17,0.508
2014-04-16 02:00:00,2975E-2,5C000400,-0724,1025,10363,024.8,045.2,0.000,746.5,01.17,0.508
2014-04-16 02:01:00,2939E-2,5C000400,-0724,1025,10122,024.8,045.2,0.000,746.5,01.17,0.508
2014-04-16 02:02:00,2920E-2,5C000400,-0724,1023,10242,024.8,045.2,0.000,746.5,01.17,0.508
2014-04-16 02:03:00,2960E-2,5C000400,-0724,1025,10245,024.8,045.2,0.000,746.5,01.17,0.508
2014-04-16 02:04:00,2960E-2,5C000400,-0724,1025,10111,024.8,045.2,0.000,746.5,01.17,0.508
2014-04-16 02:05:00,2941E-2,5C000400,-0724,1026,10272,024.8,045.2,0.000,746.5,01.17,0.508
2014-04-16 02:06:00,2984E-2,5C000400,-0724,1026,10424,024.8,045.2,0.000,746.4,01.17,0.508
2014-04-16 02:07:00,2948E-2,5C000400,-0724,1025,9964,024.8,045.2,0.000,746.4,01.17,0.508
2014-04-16 02:08:00,2960E-2,5C000400,-0724,1025,10248,024.8,045.2,0.000,746.5,01.17,0.508
2014-04-16 02:09:00,2978E-2,5C000400,-0724,1025,10294,024.8,045.2,0.000,746.4,01.17,0.508
2014-04-16 02:10:00,3026E-2,5C000400,-0724,1024,10260,024.9,045.2,0.000,746.4,01.17,0.508
2014-04-16 02:11:00,2988E-2,5C000400,-0724,1025,10257,024.9,045.2,0.000,746.4,01.17,0.508
2014-04-16 02:12:00,2961E-2,5C000400,-0724,1025,10247,024.9,045.2,0.000,746.3,01.17,0.508
2014-04-16 02:13:00,2949E-2,5C000400,-0724,1025,10170,024.9,045.2,0.000,746.3,01.17,0.508
2014-04-16 02:14:00,2985E-2,5C000400,-0724,1025,10271,024.9,045.2,0.000,746.3,01.17,0.508
2014-04-16 02:15:00,3007E-2,5C000400,-0724,1026,10315,024.9,045.2,0.000,746.3,01.17,0.508
2014-04-16 02:16:00,3035E-2,5C000400,-0724,1026,10261,024.9,045.2,0.000,746.2,01.17,0.508
2014-04-16 02:17:00,2988E-2,5C000400,-0724,1027,10220,024.9,045.2,0.000,746.3,01.17,0.508
2014-04-16 02:18:00,2966E-2,5C000400,-0724,1026,10275,024.9,045.2,0.000,746.3,01.17,0.508
2014-04-16 02:19:00,2978E-2,5C000400,-0724,1026,10273,024.9,045.2,0.000,746.2,01.17,0.508
2014-04-16 02:20:00,2975E-2,5C000400,-0724,1026,10227,024.9,045.2,0.000,746.2,01.17,0.508
2014-04-16 02:21:00,2993E-2,5C000400,-0724,1027,10318,024.9,045.2,0.000,746.2,01.17,0.508
2014-04-16 02:22:00,2979E-2,5C000400,-0724,1027,10299,024.9,045.2,0.000,746.2,01.17,0.508
2014-04-16 02:23:00,3010E-2,5C000400,-0724,1026,10392,024.9,045.2,0.000,746.1,01.17,0.508
2014-04-16 02:24:00,2983E-2,5C000400,-0724,1026,10323,024.9,045.2,0.000,746.2,01.17,0.508
2014-04-16 02:25:00,3007E-2,5C000400,-0724,1025,10255,024.9,045.2,0.000,746.1,01.17,0.508
2014-04-16 02:26:00,2943E-2,5C000400,-0724,1027,10144,024.9,045.2,0.000,746.1,01.17,0.508
2014-04-16 02:27:00,2959E-2,5C000400,-0724,1026,10343,024.9,045.2,0.000,746.1,01.17,0.508
2014-04-16 02:28:00,2980E-2,5C000410,-0724,1026,10325,024.9,045.2,0.000,746.0,01.17,0.508
2014-04-16 02:29:00,2971E-2,5C000400,-0724,1027,10258,024.9,045.2,0.000,746.1,01.17,0.508
2014-04-16 02:30:00,2954E-2,5C000400,-0724,1025,10221,024.9,045.2,0.000,746.0,01.17,0.508
2014-04-16 02:31:00,2934E-2,5C000400,-0724,1025,10229,024.9,045.2,0.000,746.1,01.17,0.508
2014-04-16 02:32:00,2952E-2,5C000400,-0724,1026,10170,024.9,045.2,0.000,746.1,01.17,0.508
2014-04-16 02:33:00,2963E-2,5C000400,-0724,1026,10174,025.0,045.2,0.000,746.0,01.17,0.508
2014-04-16 02:34:00,2995E-2,5C000400,-0724,1026,10293,025.0,045.2,0.000,746.0,01.17,0.508
2014-04-16 02:35:00,2931E-2,5C000400,-0724,1019,10278,025.0,045.2,0.000,746.0,01.17,0.508
2014-04-16 02:36:00,2866E-2,5C000400,-0724,1027,10186,025.0,045.2,0.000,746.0,01.17,0.508
2014-04-16 02:37:00,2841E-2,5C000400,-0724,1033,10156,025.0,045.2,0.000,746.0,01.17,0.508
2014-04-16 02:38:00,2896E-2,5C000400,-0724,1033,10257,025.0,045.2,0.000,745.9,01.17,0.508
2014-04-16 02:39:00,2875E-2,5C000400,-0724,1034,10118,025.0,045.2,0.000,745.9,01.17,0.508
2014-04-16 02:40:00,2916E-2,5C000400,-0724,1034,10050,025.0,045.2,0.000,746.0,01.17,0.508
2014-04-16 02:41:00,2891E-2,5C000400,-0724,1034,10250,025.0,045.2,0.000,746.0,01.17,0.508
2014-04-16 02:42:00,2851E-2,5C000410,-0724,1035,10140,025.0,045.2,0.000,745.8,01.17,0.508
2014-04-16 02:43:00,2882E-2,5C000400,-0724,1035,10241,025.0,045.2,0.000,745.8,01.17,0.508
2014-04-16 02:44:00,2883E-2,5C000400,-0724,1035,10168,025.0,045.2,0.000,745.8,01.17,0.508
2014-04-16 02:45:00,2867E-2,5C000400,-0724,1035,10153,025.0,045.2,0.000,745.9,01.17,0.508
2014-04-16 02:46:00,2910E-2,5C000400,-0724,1035,10336,025.1,045.2,0.000,745.9,01.17,0.508
2014-04-16 02:47:00,2860E-2,5C000400,-0724,1035,10099,025.1,045.2,0.000,745.8,01.17,0.508
2014-04-16 02:48:00,2852E-2,5C000400,-0724,1034,9926,025.1,045.2,0.000,745.7,01.17,0.508
2014-04-16 02:49:00,2858E-2,5C000400,-0724,1035,10164,025.1,045.2,0.000,745.7,01.17,0.508
2014-04-16 02:50:00,2883E-2,5C000400,-0724,1036,10205,025.1,045.2,0.000,745.8,01.17,0.508
2014-04-16 02:51:00,2877E-2,5C000400,-0724,1035,10217,025.1,045.2,0.000,745.7,01.17,0.508
2014-04-16 02:52:00,2896E-2,5C000400,-0724,1035,10115,025.1,045.2,0.000,745.7,01.17,0.508
2014-04-16 02:53:00,2887E-2,5C000400,-0724,1034,10201,025.1,045.2,0.000,745.7,01.17,0.508
2014-04-16 02:54:00,2880E-2,5C000400,-0724,1035,10188,025.1,045.2,0.000,745.8,01.17,0.508
2014-04-16 02:55:00,2905E-2,5C000400,-0724,1033,10122,025.1,045.2,0.000,745.6,01.17,0.508
2014-04-16 02:56:00,2911E-2,5C000400,-0724,1034,10235,025.1,045.2,0.000,745.6,01.17,0.508
2014-04-16 02:57:00,2899E-2,5C000400,-0724,1034,10104,025.1,045.2,0.000,745.7,01.17,0.508
2014-04-16 02:58:00,2931E-2,5C000400,-0724,1035,10101,025.2,045.2,0.000,745.6,01.17,0.508
2014-04-16 02:59:00,2873E-2,5C000400,-0724,1034,10299,025.1,045.2,0.000,745.6,01.17,0.508
2014-04-16 03:00:00,2942E-2,5C000400,-0724,1035,10295,025.2,045.2,0.000,745.6,01.17,0.508
2014-04-16 03:01:00,2917E-2,5C000400,-0724,1035,10135,025.2,045.2,0.000,745.6,01.17,0.508
2014-04-16 03:02:00,2910E-2,5C000400,-0724,1033,10159,025.2,045.2,0.000,745.6,01.17,0.508
2014-04-16 03:03:00,2879E-2,5C000400,-0724,1034,10058,025.2,045.2,0.000,745.6,01.17,0.508
2014-04-16 03:04:00,2928E-2,5C000400,-0724,1034,10285,025.2,045.2,0.000,745.5,01.17,0.508
2014-04-16 03:05:00,2958E-2,5C000400,-0724,1034,10203,025.2,045.2,0.000,745.5,01.17,0.508
2014-04-16 03:06:00,2927E-2,5C000400,-0724,1034,10160,025.2,045.2,0.000,745.5,01.17,0.508
2014-04-16 03:07:00,2888E-2,5C000400,-0724,1034,10215,025.2,045.2,0.000,745.6,01.17,0.508
2014-04-16 03:08:00,2935E-2,5C000400,-0724,1034,10303,025.2,045.2,0.000,745.6,01.17,0.508
2014-04-16 03:09:00,2931E-2,5C000400,-0724,1033,10194,025.2,045.2,0.000,745.4,01.17,0.508
2014-04-16 03:10:00,2945E-2,5C000400,-0724,1033,10183,025.2,045.2,0.000,745.4,01.17,0.508
2014-04-16 03:11:00,2912E-2,5C000400,-0724,1033,10132,025.3,045.2,0.000,745.5,01.17,0.508
2014-04-16 03:12:00,2941E-2,5C000400,-0724,1034,10137,025.3,045.2,0.000,745.4,01.17,0.508
2014-04-16 03:13:00,2927E-2,5C000400,-0724,1033,10101,025.3,045.2,0.000,745.4,01.17,0.508
2014-04-16 03:14:00,2922E-2,5C000400,-0724,1034,10245,025.3,045.2,0.000,745.3,01.17,0.508
2014-04-16 03:15:00,2898E-2,5C000400,-0724,1033,10118,025.3,045.2,0.000,745.4,01.17,0.508
2014-04-16 03:16:00,2899E-2,5C000400,-0724,1032,10348,025.3,045.2,0.000,745.4,01.17,0.508
2014-04-16 03:17:00,2961E-2,5C000400,-0724,1033,10069,025.3,045.2,0.000,745.4,01.17,0.508
2014-04-16 03:18:00,2980E-2,5C000400,-0724,1032,10241,025.3,045.2,0.000,745.4,01.17,0.508
2014-04-16 03:19:00,2871E-2,5C000400,-0724,1033,10225,025.3,045.2,0.000,745.3,01.17,0.508
2014-04-16 03:20:00,2933E-2,5C000400,-0724,1035,10130,025.3,045.2,0.000,745.3,01.17,0.508
2014-04-16 03:21:00,2874E-2,5C000400,-0724,1034,10070,025.3,045.2,0.000,745.3,01.17,0.508
2014-04-16 03:22:00,2915E-2,5C000400,-0724,1033,10134,025.3,045.2,0.000,745.3,01.17,0.508
2014-04-16 03:23:00,2931E-2,5C000400,-0724,1033,10190,025.4,045.2,0.000,745.2,01.17,0.508
2014-04-16 03:24:00,2942E-2,5C000400,-0724,1033,10105,025.3,045.2,0.000,745.3,01.17,0.508
2014-04-16 03:25:00,2898E-2,5C000400,-0724,1033,10108,025.4,045.2,0.000,745.3,01.17,0.508
2014-04-16 03:26:00,2946E-2,5C000400,-0724,1033,10143,025.4,045.2,0.000,745.2,01.17,0.508
2014-04-16 03:27:00,2928E-2,5C000400,-0724,1033,10143,025.4,045.2,0.000,745.2,01.17,0.508
2014-04-16 03:28:00,2883E-2,5C000400,-0724,1032,10311,025.4,045.2,0.000,745.2,01.17,0.508
2014-04-16 03:29:00,2960E-2,5C000400,-0724,1033,10180,025.4,045.2,0.000,745.2,01.17,0.508
2014-04-16 03:30:00,2965E-2,5C000400,-0724,1033,10089,025.4,045.2,0.000,745.2,01.17,0.508
2014-04-16 03:31:00,2942E-2,5C000400,-0724,1034,10181,025.4,045.2,0.000,745.2,01.17,0.508
2014-04-16 03:32:00,2932E-2,5C000410,-0724,1032,10301,025.4,045.2,0.000,745.2,01.17,0.508
2014-04-16 03:33:00,2934E-2,5C000400,-0724,1034,10163,025.4,045.2,0.000,745.2,01.17,0.508
2014-04-16 03:34:00,2965E-2,5C000400,-0724,1034,10078,025.4,045.2,0.000,745.1,01.17,0.508
2014-04-16 03:35:00,2964E-2,5C000400,-0724,1034,10341,025.5,045.2,0.000,745.0,01.17,0.508
2014-04-16 03:36:00,2950E-2,5C000400,-0724,1033,10033,025.5,045.2,0.000,745.0,01.17,0.508
2014-04-16 03:37:00,2924E-2,5C000400,-0724,1033,10077,025.5,045.2,0.000,745.0,01.17,0.508
2014-04-16 03:38:00,2913E-2,5C000400,-0724,1033,10122,025.5,045.2,0.000,745.0,01.17,0.508
2014-04-16 03:39:00,2957E-2,5C000400,-0724,1033,10255,025.5,045.2,0.000,744.9,01.17,0.508
2014-04-16 03:40:00,2977E-2,5C000400,-0724,1033,10157,025.5,045.2,0.000,744.9,01.17,0.508
2014-04-16 03:41:00,2957E-2,5C000400,-0724,1035,10115,025.5,045.2,0.000,744.9,01.17,0.508
2014-04-16 03:42:00,2946E-2,5C000400,-0724,1034,10162,025.5,045.2,0.000,744.8,01.17,0.508
2014-04-16 03:43:00,2963E-2,5C000400,-0724,1035,10105,025.5,045.2,0.000,744.8,01.17,0.508
2014-04-16 03:44:00,2920E-2,5C000400,-0724,1034,10210,025.6,045.2,0.000,744.8,01.17,0.508
2014-04-16 03:45:00,2950E-2,5C000400,-0724,1034,10222,025.3,045.3,0.000,744.8,01.17,0.508
"read_dt","SO2 (ppb)","flags","PMT voltage (V)","lamp voltage (V)","lamp intensity (Hz)","internal temp (C)","react chamber temp (C)","sample flow (l/min)","pres (mmHg)","SO2 bkg (ppb)","SO2 coefficient"
2014-04-16 03:48:00,2943E-2,5C000400,-0724,1034,10079,025.3,045.2,0.000,744.8,01.17,0.508
2014-04-16 03:49:00,2961E-2,5C000400,-0724,1033,10228,025.3,045.2,0.000,744.7,01.17,0.508
2014-04-16 03:50:00,2984E-2,5C000400,-0724,1033,10264,025.3,045.2,0.000,744.7,01.17,0.508
2014-04-16 03:51:00,2937E-2,5C000400,-0724,1034,10294,025.3,045.2,0.000,744.7,01.17,0.508
2014-04-16 03:52:00,2925E-2,5C000400,-0724,1032,10342,025.4,045.2,0.000,744.7,01.17,0.508
2014-04-16 03:53:00,2952E-2,5C000400,-0724,1033,10059,025.4,045.2,0.000,744.7,01.17,0.508
2014-04-16 03:54:00,3030E-2,5C000400,-0724,1034,10155,025.4,045.2,0.000,744.6,01.17,0.508
2014-04-16 03:55:00,2924E-2,5C000400,-0724,1033,10259,025.4,045.2,0.000,744.7,01.17,0.508
2014-04-16 03:56:00,2975E-2,5C000400,-0724,1034,10139,025.4,045.2,0.000,744.7,01.17,0.508
2014-04-16 03:57:00,2995E-2,5C000400,-0724,1034,10117,025.5,045.3,0.000,744.6,01.17,0.508
2014-04-16 03:58:00,2993E-2,5C000400,-0724,1033,10251,025.5,045.2,0.000,744.5,01.17,0.508
2014-04-16 03:59:00,2965E-2,5C000400,-0724,1034,10267,025.5,045.2,0.000,744.5,01.17,0.508
2014-04-16 04:00:00,2993E-2,5C000400,-0724,1035,10404,025.5,045.2,0.000,744.6,01.17,0.508
2014-04-16 04:01:00,3021E-2,5C000400,-0724,1035,10251,025.5,045.2,0.000,744.5,01.17,0.508
2014-04-16 04:02:00,2998E-2,5C000400,-0724,1035,10198,025.5,045.2,0.000,744.5,01.17,0.508
2014-04-16 04:03:00,2994E-2,5C000400,-0724,1034,10199,025.6,045.2,0.000,744.4,01.18,0.508
2014-04-16 04:04:00,2984E-2,5C000410,-0724,1034,10219,025.6,045.2,0.000,744.5,01.17,0.508
2014-04-16 04:05:00,2980E-2,5C000400,-0724,1035,10182,025.6,045.2,0.000,744.4,01.18,0.508
2014-04-16 04:06:00,3019E-2,5C000400,-0724,1034,10186,025.6,045.2,0.000,744.4,01.18,0.508
2014-04-16 04:07:00,2939E-2,5C000400,-0724,1034,10250,025.7,045.2,0.000,744.4,01.18,0.508
2014-04-16 04:08:00,2977E-2,5C000400,-0724,1035,10140,025.7,045.2,0.000,744.4,01.18,0.508
2014-04-16 04:09:00,3000E-2,5C000400,-0724,1035,10098,025.7,045.2,0.000,744.3,01.18,0.508
2014-04-16 04:10:00,2979E-2,5C000400,-0724,1035,10188,025.7,045.2,0.000,744.3,01.18,0.508
2014-04-16 04:11:00,3022E-2,5C000400,-0724,1035,10163,025.8,045.2,0.000,744.3,01.18,0.508
2014-04-16 04:12:00,2979E-2,5C000400,-0724,1035,10131,025.8,045.2,0.000,744.3,01.18,0.508
2014-04-16 04:13:00,3010E-2,5C000400,-0724,1036,10095,025.8,045.2,0.000,744.3,01.18,0.508
2014-04-16 04:14:00,2997E-2,5C000400,-0724,1035,10197,025.8,045.2,0.000,744.3,01.18,0.508
2014-04-16 04:15:00,2999E-2,5C000400,-0724,1035,10128,025.8,045.3,0.000,744.3,01.18,0.508
2014-04-16 04:16:00,3015E-2,5C000400,-0724,1036,10271,025.8,045.2,0.000,744.3,01.18,0.508
2014-04-16 04:17:00,3021E-2,5C000400,-0724,1035,10099,025.9,045.2,0.000,744.3,01.18,0.508
2014-04-16 04:18:00,2972E-2,5C000400,-0724,1035,10224,025.9,045.2,0.000,744.3,01.18,0.508
2014-04-16 04:19:00,2995E-2,5C000400,-0724,1037,10163,025.9,045.2,0.000,744.3,01.18,0.508
2014-04-16 04:20:00,3042E-2,5C000400,-0724,1037,10028,025.9,045.2,0.000,744.3,01.18,0.508